Skip Page Navigation
NASA JPL Caltech
NASA Logo - Jet Propulsion Laboratory + View the NASA Portal
+ Center for Near-Earth Object Studies
JPL Home Earth Solar System Stars & Galaxies Technology
JPL Solar System Dynamics
BODIES ORBITS EPHEMERIDES TOOLS PHYSICAL DATA DISCOVERY FAQ SITE MAP
JPL Small-Body Database Browser
Search: [ help ]  
(2002 GM5)
Classification: Apollo [NEO, PHA]          SPK-ID: 3120885
Ephemeris | Orbit Diagram | Orbital Elements | Mission Design | Physical Parameters | Close-Approach Data ]

[ show orbit diagram ]
Orbital Elements at Epoch 2452377.5 (2002-Apr-13.0) TDB
Reference: JPL 10 (heliocentric ecliptic J2000)
 Element Value Uncertainty (1-sigma)   Units 
e .6951465120913581 0.010321  
a 2.122239847618661 0.059818 au
q .6469722197252533 0.0036678 au
i 7.300028194195106 0.1189 deg
node 14.00849847459325 0.032933 deg
peri 274.0166301220078 0.058526 deg
M 343.132888833128 0.80454 deg
tp 2452430.408851018035
(2002-Jun-04.90885102)
0.28671 TDB
period 1129.250064107148
3.09
47.744
0.1307
d
yr
n .3187956427389156 0.013479 deg/d
Q 3.597507475512068 0.1014 au
  Orbit Determination Parameters
   # obs. used (total)      23  
   data-arc span      7 days  
   first obs. used      2002-04-10  
   last obs. used      2002-04-17  
   planetary ephem.      DE431  
   SB-pert. ephem.      SB431-N16  
   condition code      9  
   norm. resid. RMS      .68885  
   source      ORB  
   producer      Otto Matic  
   solution date      2017-Apr-06 09:15:15  

Additional Information
 Earth MOID = .00824892 au 
 Jupiter MOID = 1.68881 au 
 T_jup = 3.363 
[ show covariance matrix ]

Ephemeris | Orbit Diagram | Orbital Elements | Mission Design | Physical Parameters | Close-Approach Data ]

Physical Parameter Table
Parameter Symbol Value Units Sigma Reference Notes
absolute magnitude H 21.5   n/a MPO147211  

[ show close-approach data ]
Ephemeris | Orbit Diagram | Orbital Elements | Mission Design | Physical Parameters | Close-Approach Data ]
ABOUT SSD CREDITS/AWARDS PRIVACY/COPYRIGHT GLOSSARY LINKS
FirstGov 2021-Jan-21 19:02 UT
(server date/time)  
NASA Home Page
Site Manager:   Ryan S. Park
Webmaster  Alan B. Chamberlin